User: anonymous   Login
Location: Oshawa
(43.9000°N, 78.8670°W)
Time: 07:27:37
(UTC-05:00)
Language:

CZ-4C R/B - Orbit

View from above orbital plane
View from above orbital plane
View from above satellite
View from above satellite

Ground track
Ground track

The orbit data is extracted from the following two-line orbital elements,

1 32290U 07055B   15028.49849530  .00006566  00000-0  23581-3 0   661
2 32290 097.5540 110.1116 0081484 341.4480 138.9769 15.25875105398583
Epoch (UTC): 28 January 2015 11:57:49
Eccentricity: 0.0081484
inclination: 97.5540°
perigee height: 432 km
apogee height: 544 km
right ascension of ascending node: 110.1116°
argument of perigee: 341.4480°
revolutions per day: 15.25875105
mean anomaly at epoch: 138.9769°
orbit number at epoch: 39858

The dashed part of the orbit path shows where the satellite is in the earth's shadow,  

DLR